CW3742 Weather Reports


time (UTC)temp
F
wind
direction
speed
knots
gust
knots
rain 1hr
in
rain 24hr
in
rain mn
in
humidity
%
barometer
mb
20260505193018 55 0 6.1 13.9 0.00 0.11 0.01 47 1010.0
20260505190016 55 0 4.3 12.2 0.00 0.11 0.01 51 1010.2
20260505183016 53 0 6.1 13.0 0.00 0.11 0.01 55 1010.2
20260505180016 53 0 5.2 11.3 0.00 0.11 0.01 56 1010.3
20260505173016 53 0 3.5 8.7 0.00 0.11 0.01 57 1010.6
20260505170037 52 0 4.3 10.4 0.00 0.11 0.01 61 1010.3
20260505163016 51 0 5.2 11.3 0.00 0.11 0.01 59 1010.3
20260505153016 51 0 3.5 8.7 0.00 0.11 0.01 57 1009.8
20260505123017 46 0.0 2.6 0.00 0.11 0.01 80 1009.7
20260505120016 45 90 0.9 2.6 0.01 0.11 0.01 75 1009.8
20260505113036 46 0 1.7 5.2 0.01 0.11 0.01 78 1010.0
20260505100016 48 0 2.6 7.0 0.00 0.10 0.00 70 1008.6
20260505093016 49 0 2.6 6.1 0.00 0.10 0.00 73 1007.9
20260505090016 50 0 4.3 9.6 0.00 0.10 0.00 66 1006.9
20260505083016 50 0 5.2 9.6 0.00 0.10 0.00 67 1006.6
20260505080016 49 0 4.3 7.8 0.00 0.10 0.00 72 1007.0
20260505073037 49 0 6.1 9.6 0.00 0.10 0.00 71 1007.1
20260505070016 49 0 4.3 7.8 0.00 0.10 0.00 70 1006.3
20260505063017 50 0 7.0 11.3 0.00 0.10 0.00 70 1005.9
20260505060036 51 0 7.0 10.4 0.00 0.10 0.00 65 1005.3
20260505053016 52 0 7.0 11.3 0.00 0.10 0.00 63 1004.0
20260505040016 57 0 7.0 11.3 0.00 0.10 0.10 62 1003.2
20260505033016 58 0 7.8 12.2 0.00 0.10 0.10 59 1003.5
20260505023017 62 0 7.8 13.9 0.00 0.10 0.10 57 1002.2
20260505020016 64 0 11.3 17.4 0.00 0.10 0.10 54 1001.3
20260505013036 66 0 6.1 13.0 0.00 0.10 0.10 62 1000.2
20260505010016 68 0 5.2 13.0 0.10 0.10 0.10 71 999.9
20260505003016 69 0 8.7 31.3 0.10 0.10 0.10 68 998.5
20260505000017 69 0 11.3 26.1 0.00 0.00 0.00 57 998.2
20260504233016 73 0 5.2 23.5 0.00 0.00 0.00 49 998.6
20260504230016 75 0 7.0 21.7 0.00 0.00 0.00 45 997.6
20260504223037 75 0 13.9 31.3 0.00 0.00 0.00 43 998.0
20260504220016 83 0 14.8 25.2 0.00 0.00 0.00 35 997.8
20260504213016 83 0 14.8 24.3 0.00 0.00 0.00 34 998.1
20260504210016 83 0 14.8 22.6 0.00 0.00 0.00 34 998.4
20260504203016 83 0 13.9 21.7 0.00 0.00 0.00 32 998.9